Weather History for Wright-Patt AFB, OH

Change the Weather History Date:

Monday, January 21, 2013

  Actual Average Record
Temperature  
Mean Temperature 16 °F -  
Max Temperature 23 °F 32 °F 55 °F (2006)
Min Temperature 9 °F 15 °F -4 °F (2000)
Degree Days  
Heating Degree Days 49    
Moisture  
Dew Point 8 °F    
Average Humidity 63    
Maximum Humidity 80    
Minimum Humidity 49    
Precipitation  
Precipitation 0.00 in - - ()
Sea Level Pressure  
Sea Level Pressure 30.13 in    
Wind  
Wind Speed 13 mph (West)    
Max Wind Speed 25 mph    
Max Gust Speed 32 mph    
Visibility 7 miles    
Events Snow    
Averages and records for this station are not official NWS values.
T = Trace of Precipitation, MM = Missing Value Source: NWS Daily Summary

Daily Weather History Graph

Daily Weather History Graph

Search for Another Location

Airport:

Trip Planner

Search our weather history database for the weather conditions in past years. The results will help you decide how hot, cold, wet, or windy it might be!

Date:

Astronomy

Jan. 21, 2013 Rise Set
Actual Time 7:52 AM EST 5:43 PM EST
Civil Twilight 7:23 AM EST 6:12 PM EST
Nautical Twilight 6:50 AM EST 6:45 PM EST
Astronomical Twilight 6:18 AM EST 7:17 PM EST
Moon 1:22 PM EST (1/21) 3:19 AM EST (1/21)
Length of Visible Light 10h 48m
Length of Day
9h 50m
Waxing Gibbous, 75% of the Moon is Illuminated
Jan 21
Waxing Gibbous
Jan 26
Full
Feb 3
Last Quarter
Feb 10
New
Feb 17
First Quarter

Hourly Weather History & Observations

Time (EST) Temp. Windchill Dew Point Humidity Pressure Visibility Wind Dir Wind Speed Gust Speed Precip Events Conditions
12:55 AM 23.5 °F 14.5 °F 10.4 °F 57% 30.17 in 10.0 mi WNW 8.1 mph - N/A   Overcast
1:55 AM 23.7 °F 17.8 °F 10.9 °F 58% 30.16 in 10.0 mi WNW 4.6 mph - N/A   Overcast
2:55 AM 23.5 °F 15.4 °F 11.8 °F 61% 30.16 in 10.0 mi West 6.9 mph - N/A   Overcast
3:55 AM 23.5 °F 14.5 °F 12.4 °F 62% 30.14 in 10.0 mi WSW 8.1 mph - N/A   Overcast
4:55 AM 23.2 °F 16.0 °F 10.6 °F 59% 30.13 in 10.0 mi West 5.8 mph - N/A   Overcast
5:55 AM 23.0 °F 13.1 °F 12.4 °F 64% 30.12 in 10.0 mi WSW 9.2 mph - N/A   Mostly Cloudy
6:50 AM 23.0 °F 10.6 °F 8.6 °F 54% 30.11 in 10.0 mi WSW 13.8 mph - N/A   Mostly Cloudy
6:55 AM 22.1 °F 10.6 °F 9.5 °F 58% 30.11 in 10.0 mi West 11.5 mph - N/A   Mostly Cloudy
7:43 AM 21.2 °F 10.9 °F 10.4 °F 63% 30.11 in 10.0 mi WSW 9.2 mph - N/A   Mostly Cloudy
7:55 AM 21.9 °F 8.2 °F 10.2 °F 61% 30.11 in 10.0 mi WSW 16.1 mph 20.7 mph N/A   Overcast
8:25 AM 21.2 °F 8.9 °F 10.4 °F 63% 30.12 in 10.0 mi WSW 12.7 mph - N/A   Overcast
8:55 AM 21.7 °F 8.0 °F 10.6 °F 62% 30.12 in 10.0 mi WSW 16.1 mph - N/A   Mostly Cloudy
9:20 AM 21.2 °F 7.3 °F 10.4 °F 63% 30.11 in 10.0 mi West 16.1 mph - N/A Snow Light Snow
9:28 AM 21.2 °F 8.3 °F 10.4 °F 63% 30.11 in 10.0 mi West 13.8 mph - N/A Snow Light Snow
9:55 AM 21.6 °F 9.9 °F 11.3 °F 65% 30.11 in 10.0 mi West 11.5 mph - 0.00 in Snow Light Snow
10:52 AM 21.2 °F 8.3 °F 10.4 °F 63% 30.12 in 3.0 mi West 13.8 mph 21.9 mph N/A Snow Light Snow
10:55 AM 21.6 °F 8.8 °F 10.4 °F 62% 30.12 in 3.0 mi West 13.8 mph 21.9 mph 0.00 in Snow Light Snow
11:06 AM 19.4 °F 6.0 °F 12.2 °F 74% 30.07 in - West 13.8 mph - N/A Snow Light Snow
11:13 AM 19.4 °F 7.2 °F 14.0 °F 80% 30.07 in 10.0 mi West 11.5 mph - N/A Snow Light Snow
11:26 AM 21.2 °F 8.9 °F 12.2 °F 68% 30.11 in 10.0 mi West 12.7 mph - N/A Snow Light Snow
11:30 AM 21.2 °F 10.9 °F 12.2 °F 68% 30.11 in 10.0 mi West 9.2 mph - N/A Snow Light Snow
11:37 AM 21.2 °F 7.8 °F 10.4 °F 63% 30.11 in 10.0 mi West 15.0 mph 19.6 mph N/A Snow Light Snow
11:48 AM 21.2 °F 5.6 °F 10.4 °F 63% 30.06 in 1.0 mi West 20.7 mph - N/A Snow Light Snow
11:55 AM 20.7 °F 5.7 °F 11.7 °F 68% 30.11 in 1.0 mi West 18.4 mph 27.6 mph 0.00 in Snow Light Snow
12:11 PM 19.4 °F 5.0 °F 12.2 °F 74% 30.11 in 1.0 mi West 16.1 mph 24.2 mph N/A Snow Light Snow
12:17 PM 19.4 °F 2.8 °F 12.2 °F 74% 30.11 in 3.0 mi West 21.9 mph 28.8 mph N/A Snow Light Snow
12:22 PM 19.4 °F 4.1 °F 10.4 °F 68% 30.11 in 4.0 mi West 18.4 mph 28.8 mph N/A Snow Light Snow
12:34 PM 19.4 °F 4.5 °F 8.6 °F 63% 30.11 in 8.0 mi West 17.3 mph 26.5 mph N/A Snow Light Snow
12:55 PM 20.5 °F 6.4 °F 8.6 °F 60% 30.11 in 9.0 mi West 16.1 mph - 0.00 in Snow Light Snow
1:01 PM 21.2 °F 6.0 °F 8.6 °F 58% 30.10 in 10.0 mi WSW 19.6 mph 25.3 mph N/A   Overcast
1:16 PM 21.2 °F 6.8 °F 10.4 °F 63% 30.10 in 3.0 mi WNW 17.3 mph - N/A Snow Light Snow
1:18 PM 21.2 °F 6.8 °F 10.4 °F 63% 30.10 in 1.5 mi WNW 17.3 mph - N/A Snow Light Snow
1:27 PM 19.4 °F 5.0 °F 12.2 °F 74% 30.10 in 1.5 mi WNW 16.1 mph - N/A Snow Light Snow
1:33 PM 19.4 °F 3.6 °F 10.4 °F 68% 30.11 in 1.0 mi West 19.6 mph - N/A Snow Light Snow
1:43 PM 17.6 °F 2.7 °F 10.4 °F 73% 30.10 in 3.0 mi West 16.1 mph 25.3 mph N/A Snow Light Snow
1:55 PM 18.9 °F 3.3 °F 8.4 °F 64% 30.10 in 3.0 mi WSW 18.4 mph 24.2 mph 0.00 in Snow Light Snow
2:36 PM 19.4 °F 3.6 °F 8.6 °F 63% 30.06 in 10.0 mi WSW 19.6 mph 24.2 mph N/A   Overcast
2:46 PM 19.4 °F 4.5 °F 8.6 °F 63% 30.07 in 3.0 mi West 17.3 mph 24.2 mph N/A Snow Light Snow
2:55 PM 17.8 °F 1.1 °F 8.8 °F 68% 30.12 in 4.0 mi West 20.7 mph 24.2 mph 0.00 in Snow Light Snow
3:11 PM 19.4 °F 3.2 °F 8.6 °F 63% 30.12 in 1.5 mi West 20.7 mph 26.5 mph N/A Snow Light Snow
3:18 PM 17.6 °F 1.7 °F 10.4 °F 73% 30.13 in 4.0 mi West 18.4 mph 29.9 mph N/A Snow Light Snow
3:30 PM 17.6 °F 2.2 °F 6.8 °F 63% 30.13 in 10.0 mi WSW 17.3 mph - N/A   Mostly Cloudy
3:37 PM 17.6 °F -0.6 °F 5.0 °F 58% 30.13 in 10.0 mi WSW 25.3 mph 32.2 mph N/A   Mostly Cloudy
3:55 PM 16.9 °F 2.3 °F 5.7 °F 62% 30.15 in 7.0 mi West 15.0 mph - 0.00 in Snow Light Snow
3:56 PM 17.6 °F 1.7 °F 5.0 °F 58% 30.15 in 7.0 mi WSW 18.4 mph - N/A Snow Light Snow
4:55 PM 16.5 °F 0.3 °F 3.2 °F 56% 30.16 in 10.0 mi West 18.4 mph 25.3 mph 0.00 in   Mostly Cloudy
4:57 PM 15.8 °F -1.5 °F 5.0 °F 62% 30.16 in 9.0 mi West 20.7 mph 28.8 mph N/A Snow Light Snow
5:22 PM 15.8 °F -0.6 °F 3.2 °F 58% 30.17 in 10.0 mi West 18.4 mph - N/A   Mostly Cloudy
5:55 PM 14.2 °F -2.7 °F -0.0 °F 53% 30.18 in 10.0 mi West 18.4 mph 26.5 mph 0.00 in   Partly Cloudy
6:55 PM 12.9 °F -3.9 °F -1.3 °F 53% 30.20 in 10.0 mi West 17.3 mph 25.3 mph N/A   Partly Cloudy
7:55 PM 11.5 °F -6.7 °F -2.0 °F 55% 30.20 in 10.0 mi West 19.6 mph - N/A   Partly Cloudy
8:55 PM 10.9 °F -5.9 °F -2.2 °F 56% 30.22 in 10.0 mi West 16.1 mph 23.0 mph N/A   Partly Cloudy
9:55 PM 10.4 °F -6.0 °F -5.3 °F 49% 30.24 in 10.0 mi West 15.0 mph 26.5 mph N/A   Partly Cloudy
10:55 PM 9.7 °F -4.2 °F -5.1 °F 51% 30.26 in 10.0 mi West 10.4 mph 20.7 mph N/A   Clear
11:55 PM 9.1 °F -7.0 °F -5.1 °F 53% 30.26 in 10.0 mi West 13.8 mph - N/A   Clear